Preview of NWS' New Version of Forecast
This preview is not operational and should not be used for support decisions.

Regional Weather Roundup (RWR)

Issued by Philadelphia/Mt Holly (PHI)

                            
000
ASUS41 KPHI 170512
RWRPHI

REGIONAL WEATHER ROUNDUP
NATIONAL WEATHER SERVICE MOUNT HOLLY NJ
1200 AM EST MON DEC 17 2018

NOTE:  "FAIR" INDICATES FEW OR NO CLOUDS BELOW 12,000 FEET WITH NO
SIGNIFICANT WEATHER AND/OR OBSTRUCTIONS TO VISIBILITY.

 * = STATION DOES NOT REPORT PRECIPITATION (E.G. RAIN, SNOW, ETC.) 
        OR FOG.

NJZ015>026-170600-
SOUTHERN NEW JERSEY
  
CITY           SKY/WX    TMP DP  RH WIND       PRES   REMARKS
POMONA         CLOUDY    39  39 100 NW13      29.80S FOG     WCI  31  
WILDWOOD*      CLOUDY    40  38  93 NW15G21   29.84S WCI  32          
MILLVILLE      CLOUDY    39  38  96 NW13      29.84S FOG     WCI  31  
WRIGHTSTOWN    CLOUDY    38  36  91 NW12      29.77F WCI  31          
MOUNT HOLLY    CLOUDY    39  36  89 NW8       29.82S WCI  33          
TRENTON        CLOUDY    39  36  89 NW9       29.81S WCI  33          

$$
NJZ001>014-170600-
NORTHERN NEW JERSEY
  
CITY           SKY/WX    TMP DP  RH WIND       PRES   REMARKS
SUSSEX         CLOUDY    38  35  89 NW7       29.80F WCI  33          
ANDOVER*         N/A     37  34  89 N5        29.81S WCI  33          
MORRISTOWN     CLOUDY    39  36  87 N9        29.80R WCI  33          
NEWARK         CLOUDY    38  35  89 N15       29.78F WCI  29          
TETERBORO      CLOUDY    39  35  86 N9        29.77F WCI  33          
CALDWELL       CLOUDY    38  35  89 N6        29.80F WCI  33          
SOMERVILLE     CLOUDY    39  35  86 NW7       29.80S WCI  34          
ALLAIRE*       CLOUDY    38  35  89 NW12      29.78S WCI  30          
TOMS RIVER*    CLOUDY    38  37  97 NW12      29.79S WCI  30          

$$
PAZ043-044-047-054-055-060>062-066>071-170600-
EASTERN PENNSYLVANIA
  
CITY           SKY/WX    TMP DP  RH WIND       PRES   REMARKS
PHILADELPHIA   CLOUDY    39  36  89 NW13      29.84F WCI  31          
NORTH PHILA    CLOUDY    41  35  79 NW13      29.84S                  
BLUE BELL*     CLOUDY    36  36 100 CALM      29.85S                  
DOYLESTOWN     CLOUDY    38  35  89 NW6       29.82S WCI  33          
QUAKERTOWN*    CLOUDY    37  37 100 NW5       29.83F WCI  34          
PERKASIE*      CLOUDY    36  36 100 NW6       29.83F WCI  31          
POTTSTOWN      CLOUDY    37  36  96 NW3       29.85F                  
LANCASTER      CLOUDY    41  37  86 W7        29.87F                  
COATESVILLE    MOCLDY    37  36  93 NW7       29.85F WCI  32          
READING        MOCLDY    37  36  96 NW6       29.85F WCI  32          
ALLENTOWN      CLOUDY    40  34  79 NW7       29.83F                  
MOUNT POCONO   CLOUDY    32  32 100 NW13      29.76F WCI  22          
HAZLETON       FOG       34  32  93 NW6       29.83F VSB 1/2 WCI  29  
WILKES BARRE   CLOUDY    36  34  92 NW3       29.83F                  

$$
DEZALL-MDZ008-012-015-019-020-170600-
DELAWARE AND EASTERN MARYLAND
  
CITY           SKY/WX    TMP DP  RH WIND       PRES   REMARKS
WILMINGTON     CLOUDY    39  38  96 NW9       29.87F WCI  33          
DOVER          CLOUDY    40  39  95 NW10      29.86R WCI  34          
GEORGETOWN     CLOUDY    42  39  89 NW8       29.86F FOG              
EASTON         CLOUDY    42  39  88 NW8       29.91F                  
PATUXENT       FAIR      43  41  93 NW8       29.91                   
OCEAN CITY     CLOUDY    41  39  93 NW12G18   29.85F                  
WALLOPS ISLAND CLOUDY    43  38  82 NW12G18   29.88S                  
CAMBRIDGE      CLOUDY    43  39  87 NW8       29.88F                  
SALISBURY      CLOUDY    41  41 100 W6        29.87F                  

$$
PAZ001-021-NYZ056-072-MDZ011-DCZ001-170600-
OTHER NEARBY LOCATIONS
  
CITY           SKY/WX    TMP DP  RH WIND       PRES   REMARKS
HARRISBURG     CLOUDY    41  37  86 N3        29.87F                  
STATE COLLEGE  CLOUDY    40  37  90 W5        29.89R                  
WILLIAMSPORT   CLOUDY    38  36  92 W3        29.88F                  
BINGHAMTON     FOG       31  31 100 NW6       29.81F VSB 1/4 WCI  25  
NEW YORK CITY  CLOUDY    38  35  89 MISG      29.79                   
BALTIMORE      FAIR      36  35  96 W3        29.89F                  
WASHINGTON DC  CLOUDY    44  37  76 NW5       29.92F                  

$$